Time,TemperatureF,DewpointF,PressureIn,WindDirection,WindDirectionDegrees,WindSpeedMPH,WindSpeedGustMPH,Humidity,HourlyPrecipIn,Conditions,Clouds,dailyrainin,SoftwareType,DateUTC
2013-04-23 00:02:00,51.4,18.6,30.05,SSE,162,7.6,8.7,27,0.00,,---,0.00,VWS V12.08,2013-04-23 05:02:00,
2013-04-23 00:07:00,51.4,21.1,30.05,SSE,164,7.6,8.3,30,0.00,,---,0.00,VWS V12.08,2013-04-23 05:07:00,
2013-04-23 00:12:00,51.3,20.9,30.05,SSE,158,10.1,10.1,30,0.00,,---,0.00,VWS V12.08,2013-04-23 05:12:00,
2013-04-23 00:17:00,51.4,18.6,30.05,South,169,6.7,10.1,27,0.00,,---,0.00,VWS V12.08,2013-04-23 05:17:00,
2013-04-23 00:22:00,51.4,18.6,30.05,SSE,164,8.1,10.1,27,0.00,,---,0.00,VWS V12.08,2013-04-23 05:22:00,
2013-04-23 00:27:00,51.4,21.1,30.05,SSE,164,8.3,10.1,30,0.00,,---,0.00,VWS V12.08,2013-04-23 05:27:00,
2013-04-23 00:32:00,51.8,18.9,30.05,SSE,168,7.6,11.9,27,0.00,,---,0.00,VWS V12.08,2013-04-23 05:32:00,
2013-04-23 00:37:00,51.8,18.9,30.05,SSE,167,6.3,8.7,27,0.00,,---,0.00,VWS V12.08,2013-04-23 05:37:00,
2013-04-23 00:42:00,52.0,19.1,30.05,South,179,8.3,8.7,27,0.00,,---,0.00,VWS V12.08,2013-04-23 05:42:00,
2013-04-23 00:47:00,52.2,19.2,30.05,SSW,202,3.6,8.7,27,0.00,,---,0.00,VWS V12.08,2013-04-23 05:47:00,
2013-04-23 00:52:00,52.3,21.0,30.05,SW,222,5.4,6.3,29,0.00,,---,0.00,VWS V12.08,2013-04-23 05:52:00,
2013-04-23 00:57:00,52.3,21.0,30.05,WSW,242,8.1,8.3,29,0.00,,---,0.00,VWS V12.08,2013-04-23 05:57:00,
2013-04-23 01:02:00,51.8,22.9,30.05,SW,218,5.4,8.3,32,0.00,,---,0.00,VWS V12.08,2013-04-23 06:02:00,
2013-04-23 01:07:00,51.6,22.7,30.05,SSW,192,5.4,7.6,32,0.00,,---,0.00,VWS V12.08,2013-04-23 06:07:00,
2013-04-23 01:12:00,52.2,23.2,30.05,SSW,210,6.3,8.1,32,0.00,,---,0.00,VWS V12.08,2013-04-23 06:12:00,
2013-04-23 01:17:00,52.3,23.4,30.05,SSW,199,5.4,5.4,32,0.00,,---,0.00,VWS V12.08,2013-04-23 06:17:00,
2013-04-23 01:22:00,52.3,23.4,30.05,South,190,5.4,6.7,32,0.00,,---,0.00,VWS V12.08,2013-04-23 06:22:00,
2013-04-23 01:27:00,52.0,23.1,30.05,SSW,205,4.9,6.7,32,0.00,,---,0.00,VWS V12.08,2013-04-23 06:27:00,
2013-04-23 01:32:00,51.8,22.9,30.05,SSW,197,4.0,4.0,32,0.00,,---,0.00,VWS V12.08,2013-04-23 06:32:00,
2013-04-23 01:37:00,51.6,23.5,30.05,South,190,4.9,4.9,33,0.00,,---,0.00,VWS V12.08,2013-04-23 06:37:00,
2013-04-23 01:42:00,51.4,23.3,30.05,SSW,192,3.6,5.4,33,0.00,,---,0.00,VWS V12.08,2013-04-23 06:42:00,
2013-04-23 01:47:00,51.1,23.7,30.05,SSW,192,3.1,3.6,34,0.00,,---,0.00,VWS V12.08,2013-04-23 06:47:00,
2013-04-23 01:52:00,51.1,23.7,30.05,SSW,193,3.1,5.4,34,0.00,,---,0.00,VWS V12.08,2013-04-23 06:52:00,
2013-04-23 01:57:00,51.1,23.7,30.05,SSW,192,4.0,5.4,34,0.00,,---,0.00,VWS V12.08,2013-04-23 06:57:00,
2013-04-23 02:02:00,51.3,23.9,30.05,South,183,4.0,4.0,34,0.00,,---,0.00,VWS V12.08,2013-04-23 07:02:00,
2013-04-23 02:07:00,50.7,24.8,30.05,South,172,4.5,4.9,36,0.00,,---,0.00,VWS V12.08,2013-04-23 07:07:00,
2013-04-23 02:12:00,50.2,25.6,30.05,South,181,4.0,5.4,38,0.00,,---,0.00,VWS V12.08,2013-04-23 07:12:00,
2013-04-23 02:17:00,49.8,26.5,30.05,South,171,3.1,4.9,40,0.00,,---,0.00,VWS V12.08,2013-04-23 07:17:00,
2013-04-23 02:22:00,50.0,26.6,30.05,South,176,3.1,4.9,40,0.00,,---,0.00,VWS V12.08,2013-04-23 07:22:00,
2013-04-23 02:27:00,50.0,27.2,30.05,South,176,4.0,4.9,41,0.00,,---,0.00,VWS V12.08,2013-04-23 07:27:00,
2013-04-23 02:32:00,50.2,26.8,30.05,SSE,168,4.0,4.0,40,0.00,,---,0.00,VWS V12.08,2013-04-23 07:32:00,
2013-04-23 02:37:00,50.2,28.0,30.05,SSE,157,4.0,4.9,42,0.00,,---,0.00,VWS V12.08,2013-04-23 07:37:00,
2013-04-23 02:42:00,50.0,27.8,30.05,SSE,161,3.6,5.8,42,0.00,,---,0.00,VWS V12.08,2013-04-23 07:42:00,
2013-04-23 02:47:00,49.8,28.2,30.05,SSE,160,4.0,4.0,43,0.00,,---,0.00,VWS V12.08,2013-04-23 07:47:00,
2013-04-23 02:52:00,49.6,28.1,30.05,South,178,3.1,4.9,43,0.00,,---,0.00,VWS V12.08,2013-04-23 07:52:00,
2013-04-23 02:57:00,49.8,28.2,30.05,South,180,3.1,4.9,43,0.00,,---,0.00,VWS V12.08,2013-04-23 07:57:00,
2013-04-23 03:02:00,50.0,27.8,30.05,South,172,3.6,3.6,42,0.00,,---,0.00,VWS V12.08,2013-04-23 08:02:00,
2013-04-23 03:08:00,50.0,27.8,30.05,SSE,163,3.6,4.0,42,0.00,,---,0.00,VWS V12.08,2013-04-23 08:08:00,
2013-04-23 03:13:00,50.0,27.8,30.05,South,188,2.7,4.9,42,0.00,,---,0.00,VWS V12.08,2013-04-23 08:13:00,
2013-04-23 03:18:00,50.4,28.2,30.05,SSW,205,4.0,4.5,42,0.00,,---,0.00,VWS V12.08,2013-04-23 08:18:00,
2013-04-23 03:23:00,50.7,27.9,30.05,SSW,209,4.9,6.3,41,0.00,,---,0.00,VWS V12.08,2013-04-23 08:23:00,
2013-04-23 03:28:00,51.3,28.4,30.05,SW,224,3.6,7.2,41,0.00,,---,0.00,VWS V12.08,2013-04-23 08:28:00,
2013-04-23 03:33:00,51.1,28.8,30.05,SW,220,5.8,5.8,42,0.00,,---,0.00,VWS V12.08,2013-04-23 08:33:00,
2013-04-23 03:38:00,51.1,29.4,30.05,South,173,4.0,6.3,43,0.00,,---,0.00,VWS V12.08,2013-04-23 08:38:00,
2013-04-23 03:43:00,51.1,29.4,30.05,South,178,5.4,6.3,43,0.00,,---,0.00,VWS V12.08,2013-04-23 08:43:00,
2013-04-23 03:48:00,50.9,30.3,30.05,South,191,5.4,7.6,45,0.00,,---,0.00,VWS V12.08,2013-04-23 08:48:00,
2013-04-23 03:53:00,50.9,30.9,30.05,SSW,204,5.4,7.6,46,0.00,,---,0.00,VWS V12.08,2013-04-23 08:53:00,
2013-04-23 03:58:00,50.9,31.9,30.05,South,179,5.8,8.1,48,0.00,,---,0.00,VWS V12.08,2013-04-23 08:58:00,
2013-04-23 04:03:00,50.7,32.8,30.05,South,171,5.8,6.3,50,0.00,,---,0.00,VWS V12.08,2013-04-23 09:03:00,
2013-04-23 04:08:00,50.4,33.4,30.05,SSE,164,6.3,7.6,52,0.00,,---,0.00,VWS V12.08,2013-04-23 09:08:00,
2013-04-23 04:13:00,50.2,33.7,30.05,South,182,3.6,7.6,53,0.00,,---,0.00,VWS V12.08,2013-04-23 09:13:00,
2013-04-23 04:18:00,50.2,34.2,30.05,South,180,6.3,6.3,54,0.00,,---,0.00,VWS V12.08,2013-04-23 09:18:00,
2013-04-23 04:23:00,50.2,34.7,30.05,SSW,197,5.8,7.6,55,0.00,,---,0.00,VWS V12.08,2013-04-23 09:23:00,
2013-04-23 04:28:00,50.4,34.8,30.05,SSW,195,6.3,7.6,55,0.00,,---,0.00,VWS V12.08,2013-04-23 09:28:00,
2013-04-23 04:33:00,50.4,35.3,30.05,SSE,168,7.6,7.6,56,0.00,,---,0.00,VWS V12.08,2013-04-23 09:33:00,
2013-04-23 04:38:00,50.4,35.3,30.05,SSW,203,6.3,8.3,56,0.00,,---,0.00,VWS V12.08,2013-04-23 09:38:00,
2013-04-23 04:43:00,50.2,35.5,30.05,SSW,202,3.6,8.3,57,0.00,,---,0.00,VWS V12.08,2013-04-23 09:43:00,
2013-04-23 04:48:00,50.2,36.0,30.05,SSW,197,5.4,6.7,58,0.00,,---,0.00,VWS V12.08,2013-04-23 09:48:00,
2013-04-23 04:53:00,50.2,36.0,30.05,SSW,193,5.8,6.7,58,0.00,,---,0.00,VWS V12.08,2013-04-23 09:53:00,
2013-04-23 04:58:00,50.2,36.4,30.05,South,177,5.4,7.6,59,0.00,,---,0.00,VWS V12.08,2013-04-23 09:58:00,
2013-04-23 05:03:00,50.2,36.4,30.05,SSW,204,6.3,7.2,59,0.00,,---,0.00,VWS V12.08,2013-04-23 10:03:00,
2013-04-23 05:08:00,50.2,36.4,30.05,South,186,5.4,7.2,59,0.00,,---,0.00,VWS V12.08,2013-04-23 10:08:00,
2013-04-23 05:13:00,50.2,36.4,30.05,SSW,211,5.4,8.3,59,0.00,,---,0.00,VWS V12.08,2013-04-23 10:13:00,
2013-04-23 05:18:00,50.2,36.4,30.05,South,182,4.0,4.9,59,0.00,,---,0.00,VWS V12.08,2013-04-23 10:18:00,
2013-04-23 05:23:00,50.2,36.8,30.05,South,191,5.8,6.3,60,0.00,,---,0.00,VWS V12.08,2013-04-23 10:23:00,
2013-04-23 05:28:00,50.0,37.1,30.05,SSW,198,5.8,6.7,61,0.00,,---,0.00,VWS V12.08,2013-04-23 10:28:00,
2013-04-23 05:33:00,50.0,37.5,30.05,SW,217,4.0,6.7,62,0.00,,---,0.00,VWS V12.08,2013-04-23 10:33:00,
2013-04-23 05:38:00,50.0,37.5,30.05,SSW,213,7.6,8.1,62,0.00,,---,0.00,VWS V12.08,2013-04-23 10:38:00,
2013-04-23 05:43:00,50.0,38.3,30.05,SW,222,7.6,10.5,64,0.00,,---,0.00,VWS V12.08,2013-04-23 10:43:00,
2013-04-23 05:48:00,50.2,38.5,30.05,SW,214,8.3,10.1,64,0.00,,---,0.00,VWS V12.08,2013-04-23 10:48:00,
2013-04-23 05:53:00,50.2,38.5,30.05,SSW,194,8.1,10.1,64,0.00,,---,0.00,VWS V12.08,2013-04-23 10:53:00,
2013-04-23 05:58:00,50.2,38.5,30.05,SSW,207,7.6,11.0,64,0.00,,---,0.00,VWS V12.08,2013-04-23 10:58:00,
2013-04-23 06:03:00,50.2,38.5,30.05,SSW,209,11.0,11.0,64,0.00,,---,0.00,VWS V12.08,2013-04-23 11:03:00,
2013-04-23 06:08:00,50.4,38.7,30.05,SSW,202,8.3,11.0,64,0.00,,---,0.00,VWS V12.08,2013-04-23 11:08:00,
2013-04-23 06:13:00,50.4,38.3,30.05,SW,214,11.0,11.0,63,0.00,,---,0.00,VWS V12.08,2013-04-23 11:13:00,
2013-04-23 06:18:00,50.4,38.7,30.05,SW,225,10.1,11.0,64,0.00,,---,0.00,VWS V12.08,2013-04-23 11:18:00,
2013-04-23 06:23:00,50.4,38.7,30.05,SW,219,11.0,13.2,64,0.00,,---,0.00,VWS V12.08,2013-04-23 11:23:00,
2013-04-23 06:28:00,50.4,38.7,30.05,SW,216,8.1,13.2,64,0.00,,---,0.00,VWS V12.08,2013-04-23 11:28:00,
2013-04-23 06:33:00,50.4,38.3,30.05,SW,214,7.6,8.3,63,0.00,,---,0.00,VWS V12.08,2013-04-23 11:33:00,
2013-04-23 06:38:00,50.5,38.4,30.05,SW,236,8.7,10.5,63,0.00,,---,0.00,VWS V12.08,2013-04-23 11:38:00,
2013-04-23 06:43:00,50.5,38.0,30.05,SW,228,7.6,11.0,62,0.00,,---,0.00,VWS V12.08,2013-04-23 11:43:00,
2013-04-23 06:48:00,50.5,37.6,30.05,SW,226,6.3,9.6,61,0.00,,---,0.00,VWS V12.08,2013-04-23 11:48:00,
2013-04-23 06:53:00,50.7,37.4,30.05,SW,233,7.6,10.1,60,0.00,,---,0.00,VWS V12.08,2013-04-23 11:53:00,
2013-04-23 06:58:00,50.7,37.4,30.05,SW,231,6.3,10.1,60,0.00,,---,0.00,VWS V12.08,2013-04-23 11:58:00,
2013-04-23 07:03:00,51.1,36.4,30.05,SW,236,8.7,11.0,57,0.00,,---,0.00,VWS V12.08,2013-04-23 12:03:00,
2013-04-23 07:08:00,51.3,36.1,30.05,SW,230,11.0,13.2,56,0.00,,---,0.00,VWS V12.08,2013-04-23 12:08:00,
2013-04-23 07:13:00,51.3,35.7,30.05,SW,232,8.3,13.2,55,0.00,,---,0.00,VWS V12.08,2013-04-23 12:13:00,
2013-04-23 07:18:00,51.3,35.2,30.05,South,176,10.5,11.0,54,0.00,,---,0.00,VWS V12.08,2013-04-23 12:18:00,
2013-04-23 07:23:00,51.3,35.2,30.05,WSW,237,9.2,13.2,54,0.00,,---,0.00,VWS V12.08,2013-04-23 12:23:00,
2013-04-23 07:28:00,51.3,35.2,30.05,SW,223,11.0,13.2,54,0.00,,---,0.00,VWS V12.08,2013-04-23 12:28:00,
2013-04-23 07:33:00,51.3,35.7,30.05,WSW,241,8.3,9.6,55,0.00,,---,0.00,VWS V12.08,2013-04-23 12:33:00,
2013-04-23 07:38:00,48.7,27.8,30.05,West,276,20.1,20.1,44,0.00,,---,0.00,VWS V12.08,2013-04-23 12:38:00,
2013-04-23 07:44:00,47.3,27.6,30.05,WNW,298,13.2,20.1,46,0.00,,---,0.00,VWS V12.08,2013-04-23 12:44:00,
2013-04-23 07:49:00,46.4,27.8,30.05,WNW,291,8.1,13.2,48,0.00,,---,0.00,VWS V12.08,2013-04-23 12:49:00,
2013-04-23 07:54:00,46.0,28.5,30.05,WNW,302,8.3,13.2,50,0.00,,---,0.00,VWS V12.08,2013-04-23 12:54:00,
2013-04-23 07:59:00,46.0,29.9,30.05,NNW,346,5.8,13.2,53,0.00,,---,0.00,VWS V12.08,2013-04-23 12:59:00,
2013-04-23 08:04:00,45.3,28.8,30.05,WNW,298,10.5,15.0,52,0.00,,---,0.00,VWS V12.08,2013-04-23 13:04:00,
2013-04-23 08:09:00,44.6,26.1,30.05,NW,316,8.3,15.0,48,0.00,,---,0.00,VWS V12.08,2013-04-23 13:09:00,
2013-04-23 08:14:00,44.2,26.3,30.05,WNW,303,8.1,15.0,49,0.00,,---,0.00,VWS V12.08,2013-04-23 13:14:00,
2013-04-23 08:19:00,44.1,25.1,30.05,WNW,287,12.3,13.2,47,0.00,,---,0.00,VWS V12.08,2013-04-23 13:19:00,
2013-04-23 08:24:00,43.7,24.3,30.05,NW,305,8.7,15.4,46,0.00,,---,0.00,VWS V12.08,2013-04-23 13:24:00,
2013-04-23 08:29:00,43.3,23.4,30.05,WNW,288,12.3,15.4,45,0.00,,---,0.00,VWS V12.08,2013-04-23 13:29:00,
2013-04-23 08:34:00,43.2,23.8,30.05,WNW,296,8.3,15.0,46,0.00,,---,0.00,VWS V12.08,2013-04-23 13:34:00,
2013-04-23 08:39:00,43.0,23.1,30.05,NW,310,17.0,19.2,45,0.00,,---,0.00,VWS V12.08,2013-04-23 13:39:00,
2013-04-23 08:44:00,42.4,23.1,30.05,NW,318,8.7,19.2,46,0.00,,---,0.00,VWS V12.08,2013-04-23 13:44:00,
2013-04-23 08:49:00,42.3,23.5,30.05,WNW,289,7.6,10.1,47,0.00,,---,0.00,VWS V12.08,2013-04-23 13:49:00,
2013-04-23 08:54:00,41.7,22.0,30.05,WNW,290,16.8,17.4,45,0.00,,---,0.00,VWS V12.08,2013-04-23 13:54:00,
2013-04-23 08:59:00,41.5,22.3,30.05,NW,325,18.3,18.3,46,0.00,,---,0.00,VWS V12.08,2013-04-23 13:59:00,
2013-04-23 09:04:00,41.7,22.5,30.05,WNW,299,11.0,13.6,46,0.00,,---,0.00,VWS V12.08,2013-04-23 14:04:00,
2013-04-23 09:09:00,41.7,23.0,30.05,WNW,288,14.5,15.0,47,0.00,,---,0.00,VWS V12.08,2013-04-23 14:09:00,
2013-04-23 09:14:00,41.5,22.3,30.05,WNW,297,11.0,17.4,46,0.00,,---,0.00,VWS V12.08,2013-04-23 14:14:00,
2013-04-23 09:19:00,41.2,21.5,30.05,WNW,299,11.9,12.8,45,0.00,,---,0.00,VWS V12.08,2013-04-23 14:19:00,
2013-04-23 09:24:00,41.0,21.3,30.05,NW,316,14.1,17.4,45,0.00,,---,0.00,VWS V12.08,2013-04-23 14:24:00,
2013-04-23 09:29:00,41.0,20.8,30.05,North,353,8.7,17.4,44,0.00,,---,0.00,VWS V12.08,2013-04-23 14:29:00,
2013-04-23 09:34:00,40.6,21.0,30.05,NW,326,8.3,16.8,45,0.00,,---,0.00,VWS V12.08,2013-04-23 14:34:00,
2013-04-23 09:39:00,40.6,21.0,30.05,WNW,299,8.1,17.0,45,0.00,,---,0.00,VWS V12.08,2013-04-23 14:39:00,
2013-04-23 09:44:00,40.8,21.1,30.05,NW,314,11.0,17.0,45,0.00,,---,0.00,VWS V12.08,2013-04-23 14:44:00,
2013-04-23 09:49:00,41.2,20.9,30.05,WNW,299,10.5,15.4,44,0.00,,---,0.00,VWS V12.08,2013-04-23 14:49:00,
2013-04-23 09:54:00,41.5,20.2,30.05,NNW,331,13.2,17.4,42,0.00,,---,0.00,VWS V12.08,2013-04-23 14:54:00,
2013-04-23 09:59:00,41.2,19.3,30.05,North,353,10.1,17.4,41,0.00,,---,0.00,VWS V12.08,2013-04-23 14:59:00,
2013-04-23 10:04:00,41.0,19.1,30.05,West,278,9.6,13.2,41,0.00,,---,0.00,VWS V12.08,2013-04-23 15:04:00,
2013-04-23 10:09:00,40.3,19.6,30.05,West,275,11.0,15.4,43,0.00,,---,0.00,VWS V12.08,2013-04-23 15:09:00,
2013-04-23 10:14:00,40.3,19.6,30.05,WNW,282,16.8,16.8,43,0.00,,---,0.00,VWS V12.08,2013-04-23 15:14:00,
2013-04-23 10:19:00,40.1,19.4,30.05,NW,310,8.7,12.8,43,0.00,,---,0.00,VWS V12.08,2013-04-23 15:19:00,
2013-04-23 10:24:00,40.3,19.6,30.05,North,357,5.8,15.4,43,0.00,,---,0.00,VWS V12.08,2013-04-23 15:24:00,
2013-04-23 10:29:00,40.5,19.7,30.05,NNW,340,8.3,15.4,43,0.00,,---,0.00,VWS V12.08,2013-04-23 15:29:00,
2013-04-23 10:34:00,40.8,20.1,30.05,WNW,302,7.6,10.1,43,0.00,,---,0.00,VWS V12.08,2013-04-23 15:34:00,
2013-04-23 10:39:00,41.0,19.1,30.05,WNW,301,7.6,15.0,41,0.00,,---,0.00,VWS V12.08,2013-04-23 15:39:00,
2013-04-23 10:44:00,40.8,18.4,30.05,NW,304,12.8,15.9,40,0.00,,---,0.00,VWS V12.08,2013-04-23 15:44:00,
2013-04-23 10:49:00,40.6,18.2,30.05,West,281,9.2,12.3,40,0.00,,---,0.00,VWS V12.08,2013-04-23 15:49:00,
2013-04-23 10:54:00,40.6,18.2,30.05,NW,310,11.0,12.3,40,0.00,,---,0.00,VWS V12.08,2013-04-23 15:54:00,
2013-04-23 10:59:00,40.5,18.1,30.05,WNW,286,8.3,13.6,40,0.00,,---,0.00,VWS V12.08,2013-04-23 15:59:00,
2013-04-23 11:04:00,39.9,17.6,30.05,WNW,282,11.0,11.9,40,0.00,,---,0.00,VWS V12.08,2013-04-23 16:04:00,
2013-04-23 11:10:00,39.7,19.1,30.05,WNW,284,10.1,12.3,43,0.00,,---,0.00,VWS V12.08,2013-04-23 16:10:00,
2013-04-23 11:15:00,39.9,18.7,30.05,NW,314,8.1,12.3,42,0.00,,---,0.00,VWS V12.08,2013-04-23 16:15:00,
2013-04-23 11:20:00,40.1,18.3,30.05,WNW,290,5.8,12.8,41,0.00,,---,0.00,VWS V12.08,2013-04-23 16:20:00,
2013-04-23 11:25:00,40.1,18.9,30.05,NW,319,7.6,12.8,42,0.00,,---,0.00,VWS V12.08,2013-04-23 16:25:00,
2013-04-23 11:30:00,40.1,18.3,30.05,NW,306,10.1,12.8,41,0.00,,---,0.00,VWS V12.08,2013-04-23 16:30:00,
2013-04-23 11:35:00,39.9,18.7,30.05,WNW,283,8.1,12.8,42,0.00,,---,0.00,VWS V12.08,2013-04-23 16:35:00,
2013-04-23 11:40:00,39.9,18.1,30.05,NW,323,8.7,15.0,41,0.00,,---,0.00,VWS V12.08,2013-04-23 16:40:00,
2013-04-23 11:45:00,39.9,18.7,30.05,North,353,5.8,15.0,42,0.00,,---,0.00,VWS V12.08,2013-04-23 16:45:00,
2013-04-23 11:50:00,39.7,17.4,30.05,NW,306,8.3,8.7,40,0.00,,---,0.00,VWS V12.08,2013-04-23 16:50:00,
2013-04-23 11:55:00,39.6,17.2,30.05,NW,308,6.7,12.3,40,0.00,,---,0.00,VWS V12.08,2013-04-23 16:55:00,
2013-04-23 12:00:00,39.7,18.0,30.05,WNW,299,8.1,12.8,41,0.00,,---,0.00,VWS V12.08,2013-04-23 17:00:00,
2013-04-23 12:05:00,39.7,18.0,30.05,NNW,339,8.1,13.2,41,0.00,,---,0.00,VWS V12.08,2013-04-23 17:05:00,
2013-04-23 12:10:00,39.7,18.0,30.05,WNW,303,7.6,15.0,41,0.00,,---,0.00,VWS V12.08,2013-04-23 17:10:00,
2013-04-23 12:15:00,39.7,17.4,30.05,North,1,10.5,15.0,40,0.00,,---,0.00,VWS V12.08,2013-04-23 17:15:00,
2013-04-23 12:20:00,39.6,17.2,30.05,NW,308,12.8,12.8,40,0.00,,---,0.00,VWS V12.08,2013-04-23 17:20:00,
2013-04-23 12:25:00,39.6,17.2,30.05,North,353,10.1,13.2,40,0.00,,---,0.00,VWS V12.08,2013-04-23 17:25:00,
2013-04-23 12:30:00,39.6,17.2,30.05,WNW,299,6.3,13.2,40,0.00,,---,0.00,VWS V12.08,2013-04-23 17:30:00,
2013-04-23 12:35:00,39.7,17.4,30.05,North,0,10.1,12.8,40,0.00,,---,0.00,VWS V12.08,2013-04-23 17:35:00,
2013-04-23 12:40:00,39.7,17.4,30.05,NW,317,8.1,13.2,40,0.00,,---,0.00,VWS V12.08,2013-04-23 17:40:00,
2013-04-23 12:45:00,39.7,16.8,30.05,WNW,288,11.0,15.0,39,0.00,,---,0.00,VWS V12.08,2013-04-23 17:45:00,
2013-04-23 12:50:00,39.9,17.0,30.05,WNW,291,7.6,13.2,39,0.00,,---,0.00,VWS V12.08,2013-04-23 17:50:00,
2013-04-23 12:55:00,39.9,16.4,30.05,WNW,289,7.2,13.2,38,0.00,,---,0.00,VWS V12.08,2013-04-23 17:55:00,
2013-04-23 13:00:00,39.9,16.4,30.05,NNW,344,10.5,13.2,38,0.00,,---,0.00,VWS V12.08,2013-04-23 18:00:00,
2013-04-23 13:05:00,40.1,16.5,30.05,NW,308,8.1,12.3,38,0.00,,---,0.00,VWS V12.08,2013-04-23 18:05:00,
2013-04-23 13:10:00,40.3,17.3,30.05,NW,322,7.6,12.3,39,0.00,,---,0.00,VWS V12.08,2013-04-23 18:10:00,
2013-04-23 13:15:00,40.5,16.9,30.05,North,353,11.0,12.3,38,0.00,,---,0.00,VWS V12.08,2013-04-23 18:15:00,
2013-04-23 13:20:00,40.3,16.7,30.05,NNW,327,12.8,12.8,38,0.00,,---,0.00,VWS V12.08,2013-04-23 18:20:00,
2013-04-23 13:25:00,40.1,16.5,30.05,NW,316,11.0,15.0,38,0.00,,---,0.00,VWS V12.08,2013-04-23 18:25:00,
2013-04-23 13:30:00,40.1,16.5,30.05,NNW,344,5.8,15.0,38,0.00,,---,0.00,VWS V12.08,2013-04-23 18:30:00,
2013-04-23 13:35:00,40.5,17.5,30.05,NNW,340,8.7,12.3,39,0.00,,---,0.00,VWS V12.08,2013-04-23 18:35:00,
2013-04-23 13:40:00,40.3,16.1,30.05,North,1,8.3,12.8,37,0.00,,---,0.00,VWS V12.08,2013-04-23 18:40:00,
2013-04-23 13:45:00,40.5,16.3,30.05,NNW,333,8.1,12.8,37,0.00,,---,0.00,VWS V12.08,2013-04-23 18:45:00,
2013-04-23 13:50:00,40.6,16.4,30.05,WNW,302,8.7,14.1,37,0.00,,---,0.00,VWS V12.08,2013-04-23 18:50:00,
2013-04-23 13:55:00,40.6,16.4,30.05,NNW,328,5.8,14.1,37,0.00,,---,0.00,VWS V12.08,2013-04-23 18:55:00,
2013-04-23 14:00:00,40.8,17.2,30.05,WNW,302,5.8,14.1,38,0.00,,---,0.00,VWS V12.08,2013-04-23 19:00:00,
2013-04-23 14:05:00,40.8,16.6,30.05,WNW,302,12.8,13.6,37,0.00,,---,0.00,VWS V12.08,2013-04-23 19:05:00,
2013-04-23 14:10:00,40.8,16.6,30.05,NW,311,5.4,13.6,37,0.00,,---,0.00,VWS V12.08,2013-04-23 19:10:00,
2013-04-23 14:15:00,40.8,16.6,30.05,NNW,327,10.5,13.6,37,0.00,,---,0.00,VWS V12.08,2013-04-23 19:15:00,
2013-04-23 14:20:00,40.8,16.6,30.05,NW,312,11.4,15.4,37,0.00,,---,0.00,VWS V12.08,2013-04-23 19:20:00,
2013-04-23 14:25:00,40.8,16.6,30.05,NNW,334,8.7,15.4,37,0.00,,---,0.00,VWS V12.08,2013-04-23 19:25:00,
2013-04-23 14:30:00,40.8,15.9,30.05,North,353,5.8,15.4,36,0.00,,---,0.00,VWS V12.08,2013-04-23 19:30:00,
2013-04-23 14:35:00,41.2,16.3,30.05,North,353,6.3,15.0,36,0.00,,---,0.00,VWS V12.08,2013-04-23 19:35:00,
2013-04-23 14:40:00,41.7,16.8,30.05,NNW,327,11.4,15.0,36,0.00,,---,0.00,VWS V12.08,2013-04-23 19:40:00,
2013-04-23 14:45:00,42.1,16.4,30.05,NW,316,10.1,15.0,35,0.00,,---,0.00,VWS V12.08,2013-04-23 19:45:00,
2013-04-23 14:50:00,41.7,16.1,30.05,NW,307,9.6,15.0,35,0.00,,---,0.00,VWS V12.08,2013-04-23 19:50:00,
2013-04-23 14:55:00,41.5,15.9,30.05,NW,305,10.5,17.0,35,0.00,,---,0.00,VWS V12.08,2013-04-23 19:55:00,
2013-04-23 15:00:00,41.5,15.9,30.05,NNW,330,12.3,17.0,35,0.00,,---,0.00,VWS V12.08,2013-04-23 20:00:00,
2013-04-23 15:05:00,41.9,16.3,30.05,NNW,333,11.0,15.0,35,0.00,,---,0.00,VWS V12.08,2013-04-23 20:05:00,
2013-04-23 15:11:00,41.9,16.3,30.05,NNW,346,12.8,15.0,35,0.00,,---,0.00,VWS V12.08,2013-04-23 20:11:00,
2013-04-23 15:16:00,41.7,16.1,30.05,NNW,335,7.6,15.0,35,0.00,,---,0.00,VWS V12.08,2013-04-23 20:16:00,
2013-04-23 15:21:00,41.7,16.1,30.05,NW,313,7.6,11.0,35,0.00,,---,0.00,VWS V12.08,2013-04-23 20:21:00,
2013-04-23 15:26:00,41.9,16.3,30.05,NNW,339,14.1,16.3,35,0.00,,---,0.00,VWS V12.08,2013-04-23 20:26:00,
2013-04-23 15:31:00,42.1,16.4,30.05,North,353,8.1,16.3,35,0.00,,---,0.00,VWS V12.08,2013-04-23 20:31:00,
2013-04-23 15:36:00,42.3,16.6,30.05,NNW,337,12.3,14.1,35,0.00,,---,0.00,VWS V12.08,2013-04-23 20:36:00,
2013-04-23 15:41:00,42.3,15.9,30.05,North,353,9.2,14.1,34,0.00,,---,0.00,VWS V12.08,2013-04-23 20:41:00,
2013-04-23 15:46:00,42.3,16.6,30.05,North,353,5.4,14.1,35,0.00,,---,0.00,VWS V12.08,2013-04-23 20:46:00,
2013-04-23 15:51:00,42.3,15.9,30.05,NNW,330,12.8,14.5,34,0.00,,---,0.00,VWS V12.08,2013-04-23 20:51:00,
2013-04-23 15:56:00,42.3,15.9,30.05,NNW,345,8.3,14.5,34,0.00,,---,0.00,VWS V12.08,2013-04-23 20:56:00,
2013-04-23 16:01:00,42.1,15.8,30.05,NNW,337,8.3,14.5,34,0.00,,---,0.00,VWS V12.08,2013-04-23 21:01:00,
2013-04-23 16:06:00,42.3,16.6,30.05,NNW,338,7.6,15.0,35,0.00,,---,0.00,VWS V12.08,2013-04-23 21:06:00,
2013-04-23 16:11:00,42.1,15.8,30.05,NNW,334,8.7,15.0,34,0.00,,---,0.00,VWS V12.08,2013-04-23 21:11:00,
2013-04-23 16:16:00,42.1,15.8,30.05,NW,315,10.1,15.4,34,0.00,,---,0.00,VWS V12.08,2013-04-23 21:16:00,
2013-04-23 16:21:00,42.1,15.8,30.05,NW,313,7.6,14.1,34,0.00,,---,0.00,VWS V12.08,2013-04-23 21:21:00,
2013-04-23 16:26:00,42.3,15.9,30.05,WNW,295,7.6,14.1,34,0.00,,---,0.00,VWS V12.08,2013-04-23 21:26:00,
2013-04-23 16:31:00,42.6,16.9,30.05,NNW,337,8.3,14.1,35,0.00,,---,0.00,VWS V12.08,2013-04-23 21:31:00,
2013-04-23 16:36:00,42.6,16.2,30.05,NW,309,13.2,15.0,34,0.00,,---,0.00,VWS V12.08,2013-04-23 21:36:00,
2013-04-23 16:41:00,42.3,15.9,30.05,NW,310,8.3,15.0,34,0.00,,---,0.00,VWS V12.08,2013-04-23 21:41:00,
2013-04-23 16:46:00,41.9,15.6,30.05,North,353,12.8,15.0,34,0.00,,---,0.00,VWS V12.08,2013-04-23 21:46:00,
2013-04-23 16:51:00,41.9,15.6,30.05,North,353,11.0,15.4,34,0.00,,---,0.00,VWS V12.08,2013-04-23 21:51:00,
2013-04-23 16:56:00,41.7,15.4,30.05,NNW,339,11.0,16.8,34,0.00,,---,0.00,VWS V12.08,2013-04-23 21:56:00,
2013-04-23 17:01:00,42.1,16.4,30.05,NW,324,7.6,16.8,35,0.00,,---,0.00,VWS V12.08,2013-04-23 22:01:00,
2013-04-23 17:06:00,42.1,15.8,30.05,NNW,346,8.1,16.3,34,0.00,,---,0.00,VWS V12.08,2013-04-23 22:06:00,
2013-04-23 17:11:00,42.1,15.8,30.05,North,353,5.8,16.3,34,0.00,,---,0.00,VWS V12.08,2013-04-23 22:11:00,
2013-04-23 17:16:00,41.9,15.6,30.05,North,0,10.5,16.3,34,0.00,,---,0.00,VWS V12.08,2013-04-23 22:16:00,
2013-04-23 17:21:00,41.9,15.6,30.05,NNW,345,11.0,13.2,34,0.00,,---,0.00,VWS V12.08,2013-04-23 22:21:00,
2013-04-23 17:26:00,42.1,15.8,30.05,NW,318,12.8,13.2,34,0.00,,---,0.00,VWS V12.08,2013-04-23 22:26:00,
2013-04-23 17:31:00,42.1,15.8,30.05,North,353,8.7,14.1,34,0.00,,---,0.00,VWS V12.08,2013-04-23 22:31:00,
2013-04-23 17:36:00,41.9,15.6,30.05,NNW,338,11.9,17.4,34,0.00,,---,0.00,VWS V12.08,2013-04-23 22:36:00,
2013-04-23 17:41:00,41.7,15.4,30.05,WNW,302,14.5,17.4,34,0.00,,---,0.00,VWS V12.08,2013-04-23 22:41:00,
2013-04-23 17:46:00,41.9,15.6,30.05,NNE,15,8.7,17.4,34,0.00,,---,0.00,VWS V12.08,2013-04-23 22:46:00,
2013-04-23 17:51:00,42.1,15.8,30.05,North,349,10.1,15.0,34,0.00,,---,0.00,VWS V12.08,2013-04-23 22:51:00,
2013-04-23 17:56:00,42.1,15.8,30.05,NW,321,8.7,15.9,34,0.00,,---,0.00,VWS V12.08,2013-04-23 22:56:00,
2013-04-23 18:01:00,42.1,15.8,30.05,NNW,346,12.8,19.2,34,0.00,,---,0.00,VWS V12.08,2013-04-23 23:01:00,
2013-04-23 18:06:00,41.5,15.3,30.05,NNW,335,12.3,17.4,34,0.00,,---,0.00,VWS V12.08,2013-04-23 23:06:00,
2013-04-23 18:11:00,41.5,15.3,30.05,North,353,8.7,17.4,34,0.00,,---,0.00,VWS V12.08,2013-04-23 23:11:00,
2013-04-23 18:16:00,41.4,15.1,30.05,North,357,11.0,17.9,34,0.00,,---,0.00,VWS V12.08,2013-04-23 23:16:00,
2013-04-23 18:21:00,41.2,15.0,30.05,NNW,344,5.8,13.2,34,0.00,,---,0.00,VWS V12.08,2013-04-23 23:21:00,
2013-04-23 18:26:00,41.2,15.0,30.05,NW,311,7.6,15.4,34,0.00,,---,0.00,VWS V12.08,2013-04-23 23:26:00,
2013-04-23 18:31:00,41.2,15.0,30.05,North,2,8.1,15.4,34,0.00,,---,0.00,VWS V12.08,2013-04-23 23:31:00,
2013-04-23 18:36:00,41.2,15.0,30.05,NNW,332,10.5,15.0,34,0.00,,---,0.00,VWS V12.08,2013-04-23 23:36:00,
2013-04-23 18:42:00,41.0,14.8,30.05,NNW,346,10.5,17.0,34,0.00,,---,0.00,VWS V12.08,2013-04-23 23:42:00,
2013-04-23 18:47:00,41.0,14.8,30.05,North,357,9.6,17.0,34,0.00,,---,0.00,VWS V12.08,2013-04-23 23:47:00,
2013-04-23 18:52:00,41.0,14.8,30.05,North,0,7.6,12.3,34,0.00,,---,0.00,VWS V12.08,2013-04-23 23:52:00,
2013-04-23 18:57:00,41.0,14.8,30.05,NNW,330,8.7,13.2,34,0.00,,---,0.00,VWS V12.08,2013-04-23 23:57:00,
2013-04-23 19:02:00,40.8,15.3,30.05,North,0,8.3,13.2,35,0.00,,---,0.00,VWS V12.08,2013-04-24 00:02:00,
2013-04-23 19:07:00,40.8,14.6,30.05,NNW,330,11.0,14.1,34,0.00,,---,0.00,VWS V12.08,2013-04-24 00:07:00,
2013-04-23 19:12:00,40.6,15.1,30.05,North,0,6.3,14.1,35,0.00,,---,0.00,VWS V12.08,2013-04-24 00:12:00,
2013-04-23 19:17:00,40.6,14.5,30.05,NW,315,8.3,14.1,34,0.00,,---,0.00,VWS V12.08,2013-04-24 00:17:00,
2013-04-23 19:22:00,40.6,14.5,30.05,North,6,8.1,12.8,34,0.00,,---,0.00,VWS V12.08,2013-04-24 00:22:00,
2013-04-23 19:27:00,40.5,14.3,30.05,North,357,5.8,12.8,34,0.00,,---,0.00,VWS V12.08,2013-04-24 00:27:00,
2013-04-23 19:32:00,40.5,15.0,30.05,NNW,345,4.9,12.8,35,0.00,,---,0.00,VWS V12.08,2013-04-24 00:32:00,
2013-04-23 19:37:00,40.5,15.0,30.05,WNW,302,8.7,10.5,35,0.00,,---,0.00,VWS V12.08,2013-04-24 00:37:00,
2013-04-23 19:42:00,40.3,14.2,30.05,North,353,8.1,11.0,34,0.00,,---,0.00,VWS V12.08,2013-04-24 00:42:00,
2013-04-23 19:47:00,40.3,14.2,30.05,NNW,333,8.3,13.2,34,0.00,,---,0.00,VWS V12.08,2013-04-24 00:47:00,
2013-04-23 19:52:00,40.3,14.2,30.05,North,353,11.0,11.0,34,0.00,,---,0.00,VWS V12.08,2013-04-24 00:52:00,
2013-04-23 19:57:00,40.3,14.2,30.05,NNW,333,5.8,11.0,34,0.00,,---,0.00,VWS V12.08,2013-04-24 00:57:00,
2013-04-23 20:02:00,40.3,14.2,30.05,NNW,330,12.3,12.8,34,0.00,,---,0.00,VWS V12.08,2013-04-24 01:02:00,
2013-04-23 20:07:00,40.1,14.7,30.05,North,1,8.7,10.5,35,0.00,,---,0.00,VWS V12.08,2013-04-24 01:07:00,
2013-04-23 20:12:00,39.9,14.5,30.05,NNW,332,8.3,12.8,35,0.00,,---,0.00,VWS V12.08,2013-04-24 01:12:00,
2013-04-23 20:17:00,39.9,14.5,30.05,North,11,5.8,12.8,35,0.00,,---,0.00,VWS V12.08,2013-04-24 01:17:00,
2013-04-23 20:22:00,39.9,14.5,30.05,NNW,328,10.5,13.2,35,0.00,,---,0.00,VWS V12.08,2013-04-24 01:22:00,
2013-04-23 20:27:00,39.7,14.3,30.05,North,357,8.7,13.2,35,0.00,,---,0.00,VWS V12.08,2013-04-24 01:27:00,
2013-04-23 20:32:00,39.7,14.3,30.05,NNW,332,8.7,13.2,35,0.00,,---,0.00,VWS V12.08,2013-04-24 01:32:00,
2013-04-23 20:37:00,39.7,14.3,30.05,NNW,330,8.1,11.4,35,0.00,,---,0.00,VWS V12.08,2013-04-24 01:37:00,
2013-04-23 20:42:00,39.6,14.2,30.05,North,0,5.4,11.4,35,0.00,,---,0.00,VWS V12.08,2013-04-24 01:42:00,
2013-04-23 20:47:00,39.6,14.2,30.05,NNW,327,6.3,8.3,35,0.00,,---,0.00,VWS V12.08,2013-04-24 01:47:00,
2013-04-23 20:52:00,39.4,14.0,30.05,NW,319,8.3,10.5,35,0.00,,---,0.00,VWS V12.08,2013-04-24 01:52:00,
2013-04-23 20:57:00,39.4,14.0,30.05,NNW,341,3.6,10.5,35,0.00,,---,0.00,VWS V12.08,2013-04-24 01:57:00,
2013-04-23 21:02:00,39.4,14.0,30.05,NNW,346,8.3,8.3,35,0.00,,---,0.00,VWS V12.08,2013-04-24 02:02:00,
2013-04-23 21:07:00,39.2,13.9,30.05,NNW,339,6.3,11.0,35,0.00,,---,0.00,VWS V12.08,2013-04-24 02:07:00,
2013-04-23 21:12:00,39.2,13.9,30.05,NNW,344,7.6,11.0,35,0.00,,---,0.00,VWS V12.08,2013-04-24 02:12:00,
2013-04-23 21:17:00,39.2,13.9,30.05,North,350,7.6,13.2,35,0.00,,---,0.00,VWS V12.08,2013-04-24 02:17:00,
2013-04-23 21:23:00,39.0,13.7,30.05,North,349,8.3,13.2,35,0.00,,---,0.00,VWS V12.08,2013-04-24 02:23:00,
2013-04-23 21:29:00,39.0,13.7,30.05,NNW,331,8.1,13.2,35,0.00,,---,0.00,VWS V12.08,2013-04-24 02:29:00,
2013-04-23 21:34:00,39.0,13.7,30.05,NNW,336,8.7,8.7,35,0.00,,---,0.00,VWS V12.08,2013-04-24 02:34:00,
2013-04-23 21:39:00,39.0,13.7,30.05,NW,326,8.7,10.5,35,0.00,,---,0.00,VWS V12.08,2013-04-24 02:39:00,
2013-04-23 21:44:00,38.8,14.2,30.05,North,350,5.8,10.5,36,0.00,,---,0.00,VWS V12.08,2013-04-24 02:44:00,
2013-04-23 21:49:00,38.8,14.2,30.05,NNW,332,11.0,11.0,36,0.00,,---,0.00,VWS V12.08,2013-04-24 02:49:00,
2013-04-23 21:55:00,38.8,14.2,30.05,NNW,332,7.6,12.8,36,0.00,,---,0.00,VWS V12.08,2013-04-24 02:55:00,
2013-04-23 22:00:00,38.8,14.2,30.05,NNW,333,10.1,12.8,36,0.00,,---,0.00,VWS V12.08,2013-04-24 03:00:00,
2013-04-23 22:05:00,38.8,13.5,30.05,NNW,329,10.1,13.2,35,0.00,,---,0.00,VWS V12.08,2013-04-24 03:05:00,
2013-04-23 22:10:00,38.8,13.5,30.05,NW,326,7.6,13.2,35,0.00,,---,0.00,VWS V12.08,2013-04-24 03:10:00,
2013-04-23 22:16:00,38.8,13.5,30.05,NW,319,10.1,14.1,35,0.00,,---,0.00,VWS V12.08,2013-04-24 03:16:00,
2013-04-23 22:21:00,38.8,13.5,30.05,NNW,328,5.4,11.0,35,0.00,,---,0.00,VWS V12.08,2013-04-24 03:21:00,
2013-04-23 22:26:00,38.8,13.5,30.05,NNW,346,13.2,13.2,35,0.00,,---,0.00,VWS V12.08,2013-04-24 03:26:00,
2013-04-23 22:31:00,38.7,13.4,30.05,NW,323,10.1,13.2,35,0.00,,---,0.00,VWS V12.08,2013-04-24 03:31:00,
2013-04-23 22:36:00,38.7,13.4,30.05,NNW,332,8.1,12.8,35,0.00,,---,0.00,VWS V12.08,2013-04-24 03:36:00,
2013-04-23 22:42:00,38.7,13.4,30.05,North,6,12.8,12.8,35,0.00,,---,0.00,VWS V12.08,2013-04-24 03:42:00,
2013-04-23 22:47:00,38.5,13.2,30.05,NNW,342,8.3,11.0,35,0.00,,---,0.00,VWS V12.08,2013-04-24 03:47:00,
2013-04-23 22:53:00,38.5,13.2,30.05,NNW,340,8.1,12.3,35,0.00,,---,0.00,VWS V12.08,2013-04-24 03:53:00,
2013-04-23 22:58:00,38.5,13.2,30.05,NW,325,12.3,15.0,35,0.00,,---,0.00,VWS V12.08,2013-04-24 03:58:00,
2013-04-23 23:01:00,38.5,13.2,30.05,NNW,335,8.7,15.0,35,0.00,,---,0.00,VWS V12.08,2013-04-24 04:01:00,
2013-04-23 23:06:00,38.3,13.1,30.05,NNW,341,7.2,12.8,35,0.00,,---,0.00,VWS V12.08,2013-04-24 04:06:00,
2013-04-23 23:11:00,38.3,13.7,30.05,NNW,345,5.8,12.8,36,0.00,,---,0.00,VWS V12.08,2013-04-24 04:11:00,
2013-04-23 23:16:00,38.3,13.1,30.05,North,357,8.3,12.8,35,0.00,,---,0.00,VWS V12.08,2013-04-24 04:16:00,
2013-04-23 23:21:00,38.3,13.1,30.05,NNW,341,8.1,11.0,35,0.00,,---,0.00,VWS V12.08,2013-04-24 04:21:00,
2013-04-23 23:26:00,38.3,13.7,30.05,NW,319,8.7,11.0,36,0.00,,---,0.00,VWS V12.08,2013-04-24 04:26:00,
2013-04-23 23:31:00,38.1,13.5,30.05,North,349,10.5,11.0,36,0.00,,---,0.00,VWS V12.08,2013-04-24 04:31:00,
2013-04-23 23:36:00,38.1,13.5,30.05,WNW,290,11.0,12.3,36,0.00,,---,0.00,VWS V12.08,2013-04-24 04:36:00,
2013-04-23 23:41:00,37.9,13.4,30.05,NE,43,5.4,12.3,36,0.00,,---,0.00,VWS V12.08,2013-04-24 04:41:00,
2013-04-23 23:46:00,37.9,13.4,30.05,WNW,291,6.3,12.3,36,0.00,,---,0.00,VWS V12.08,2013-04-24 04:46:00,
2013-04-23 23:51:00,37.9,13.4,30.05,NW,305,8.1,8.7,36,0.00,,---,0.00,VWS V12.08,2013-04-24 04:51:00,
2013-04-23 23:56:00,37.8,13.2,30.05,North,1,5.8,10.5,36,0.00,,---,0.00,VWS V12.08,2013-04-24 04:56:00,